Other Public Products
Issued by NWS Grand Forks, ND

Home | Current Version | Previous Version | Graphics & Text | Print | Product List | Glossary On
Versions: 1 2 3 4 5 6 7 8 9 10 11 12 13 14 15 16 17 18 19 20 21 22 23 24 25 26 27 28 29 30 31 32 33 34 35 36 37 38 39 40 41 42 43 44 45 46 47 48 49 50
000
FPUS83 KFGF 250510
OPUFGF
PRAIRIE TO PINES WEATHER ROUNDUP
NATIONAL WEATHER SERVICE EASTERN NORTH DAKOTA/GRAND FORKS ND
1200 AM CDT SAT MAR 25 2017

 **SATELLITE DATA USED TO AUGMENT SKY COVER AT AUTOMATED STATIONS**
 *****  WEATHER ACROSS EASTERN NORTH DAKOTA  *****

CITY           SKY/WX    TMP DP  RH WIND       PRES   REMARKS
GRAND FORKS    FAIR      29  28  96 N6        30.22F WCI  23
GRAND FORKS AF FAIR      26  26  99 N5        30.23S WCI  20
GRAND CITY NWS NOT AVBL
BUXTON         NOT AVBL
DEVILS LAKE    CLOUDY    29  27  92 SE9       30.19F WCI  20
FARGO          FAIR      29  27  92 N5        30.21S WCI  24
WAHPETON ARPT  FAIR      30  28  93 CALM      30.21R
$$

 *****  WEATHER ACROSS CENTRAL AND WESTERN NORTH DAKOTA  *****

CITY           SKY/WX    TMP DP  RH WIND       PRES   REMARKS
JAMESTOWN      CLOUDY    30  27  88 E6        30.19S WCI  24
BISMARCK       FAIR      31  28  89 E10       30.14F WCI  22
MINOT          CLOUDY    31  29  92 SE14      30.09F WCI  21
MINOT AFB      FAIR      29  27  92 SE15      30.09F WCI  18
GARRISON         N/A     29  28  96 SE9       30.09S WCI  20
WILLISTON      FAIR      44  34  67 SE15G24   29.95F
DICKINSON      FAIR      37  30  75 SE18      29.99F
HETTINGER      FAIR      39  31  72 E12       30.04S
$$

 *****  OTHER OBSERVATIONS NORTHEAST NORTH DAKOTA  *****

CITY           SKY/WX    TMP DP  RH WIND       PRES   REMARKS
WALHALLA       NOT AVBL
LANGDON        FAIR      27  27 100 SE6       30.19S WCI  20
CAVALIER         N/A     30  27  86 CALM      30.23F
GRAFTON        FAIR      28  28 100 CALM      30.25F
CANDO          NOT AVBL
FORT TOTTEN      N/A     28  28  99 SE7       29.95  WCI  21
ROLLA          CLOUDY    27  27 100 SE10      30.16F WCI  17
RUGBY            N/A     27  27 100 SE10      30.16S WCI  17
 ***** THE ABOVE OBSERVATIONS ARE NON NWS ARE NOT QUALITY
        CONTROLLED AND MAY MIS-REPORT RAIN FOR SNOW...
$$

 *****  OTHER OBSERVATIONS SOUTHEAST NORTH DAKOTA *****

CITY           SKY/WX    TMP DP  RH WIND       PRES   REMARKS
COOPERSTOWN    FAIR      28  28 100 E3        30.21S
VALLEY CITY    FAIR      27  27 100 N5        30.22R WCI  21
OAKES          NOT AVBL
GWINNER        CLEAR     28  28 100 MISG      30.20S
SHEYENNE NWR     N/A     29  27  92 N5        29.95S WCI  24
BUFFALO        NOT AVBL
WYNDMERE       NOT AVBL
 ***** THE ABOVE OBSERVATIONS ARE NON NWS ARE NOT QUALITY
       CONTROLLED AND MAY MIS-REPORT RAIN FOR SNOW...
$$

  *****  WEATHER ACROSS NORTHERN MINNESOTA  *****

CITY           SKY/WX    TMP DP  RH WIND       PRES   REMARKS
FLAG ISLAND    FAIR      30  23  74 NE3       30.24F
WARROAD        FAIR      30  27  86 NE7       30.24F WCI  23
ROSEAU         FAIR      28  25  86 NE3       30.23F
HALLOCK        FAIR      30  28  93 CALM      30.23F
THF RVR FALLS  FAIR     N/A N/A N/A E10       30.22F
HALSTAD          N/A     30  28  94 NE3         N/A
FOSSTON        FAIR      27  25  93 CALM      30.20F
BAUDETTE       FAIR      28  23  81 E7        30.23S WCI  21
WASKISH        CLOUDY    36  28  75 CALM      30.23F
CROOKSTON      FAIR      30  28  93 NE5       30.22F
$$
  *****  WEATHER ACROSS CENTRAL AND WEST MINNESOTA  *****

CITY           SKY/WX    TMP DP  RH WIND       PRES   REMARKS
BEMIDJI        CLOUDY    34  29  81 E3        30.21R
PARK RAPIDS    CLOUDY    37  27  67 E5        30.19R
WADENA         CLOUDY    36  28  75 E10       30.18R
DETROIT LAKES  FAIR      32  30  93 E3        30.20S
MOORHEAD       FAIR      30  28  93 N3        30.22R
FERGUS FALLS   FAIR      34  28  80 CALM      30.24R
ELBOW LAKE     FAIR      31  29  94 CALM      30.20R
MORRIS MN      FAIR      30  28  93 E3        30.19R
STAPLES        CLOUDY    36  28  75 NE3       30.19S
WHEATON        CLOUDY    30  28  93 CALM      30.22S
$$
  *****  WEATHER ELSEWHERE ACROSS MINNESOTA  *****

CITY           SKY/WX    TMP DP  RH WIND       PRES   REMARKS
DULUTH         CLOUDY    33  32  96 E14       30.22R WCI  23
INTRNTL FALLS  CLOUDY    34  27  75 E5        30.24S
ELY            CLOUDY    34  32  93 SE7       30.23F
CLOQUET        CLOUDY    34  30  86 E9        30.21S
BRAINERD       CLOUDY    36  31  82 NE3       30.20F
HIBBING        CLOUDY    32  32 100 E6        30.22R
ALEXANDRIA     MOCLDY    36  30  79 E8        30.18F
SAINT CLOUD    CLOUDY    37  32  82 NE5       30.19R
MINNEAPOLIS    CLOUDY    39  31  72 E10       30.17S
$$

  *****  WEATHER ACROSS SOUTH DAKOTA  *****

CITY           SKY/WX    TMP DP  RH WIND       PRES   REMARKS
SIOUX FALLS    CLOUDY    37  34  89 NE15      30.13S
BROOKINGS      CLOUDY    35  32  88 E8        30.13S
WATERTOWN      CLOUDY    34  31  88 NE8       30.16S
HURON          CLOUDY    38  34  85 NE6       30.17S
SISSETON         N/A     31  30  96 N3        30.19S
ABERDEEN       FAIR      26  23  88 NE6       30.21R WCI  19
MITCHELL       CLOUDY    40  35  83 E8        30.15F
PIERRE         FAIR      38  32  79 SE8       30.15R
MOBRIDGE       FAIR      36  29  75 SE12      30.14R
RAPID CITY     FAIR      39  29  67 S10       30.07S
$$

  *****  SOME WEATHER IN NEARBY STATES *****

CITY           SKY/WX    TMP DP  RH WIND       PRES   REMARKS
GLASGOW MT     FAIR      52  30  43 SE17      29.77F
GREAT FALLS MT MOCLDY    49  31  49 SW21G33   29.80R
CHEYENNE WY    FAIR      34  23  64 SW6       30.13F
SCOTTSBLUFF NE FAIR      35  27  72 E5        30.11S
OMAHA NE       LGT RAIN  42  37  82 N15       29.99F
DES MOINES IA  CLOUDY    44  42  93 NE14      29.97S
DAVENPORT IA   CLOUDY    50  49  96 NE18      29.99F FOG
CHICAGO IL     CLOUDY    43  36  76 NE14      30.04F
EAU CLAIRE WI  CLOUDY    38  33  82 NE13      30.16R
LA CROSSE WI   LGT RAIN  40  38  93 VRB3      30.13F
$$

  *****  SOME NATIONAL WEATHER *****

CITY           SKY/WX    TMP DP  RH WIND       PRES   REMARKS
LA GUARDIA NY  MOCLDY    54  33  45 SW9       30.10F
RALEIGH NC     MOCLDY    58  48  69 SW12      30.35S
ATLANTA GA     MOCLDY    65  48  54 SE13G24   30.27F
NEW ORLEANS LA CLOUDY    71  66  84 SE15      30.10F
OKLAHOMA CITY  LGT RAIN  55  49  80 NW21G28   29.77R
ALBUQUERQUE NM FAIR      56  18  22 N5        30.17R
SALT LAKE CITY MOCLDY    52  37  56 E5        30.02S
LOS ANGELES CA FAIR      58  52  80 W15       30.18R
BOISE ID       FAIR      45  42  89 CALM      30.06R
SEATTLE WA     MOCLDY    47  42  83 S10       29.99R
$$

*** WEATHER ACROSS MANITOBA...SASKATCHEWAN AND ONTARIO ***
                ***ONTARIO***

CITY           SKY/WX    TMP DP  RH WIND       PRES   REMARKS
GERALDTON      CLEAR     12  -6  44 NE6       30.38R WCI   3
THUNDER BAY    MOCLDY    30  19  64 NE6       30.32R WCI  24
SIOUX LOOKOUT  CLEAR     25   9  50 E5        30.28S WCI  19
TORONTO        LGT RAIN  39  37  93 NE9       30.13R
BIG TROUT LK   CLEAR     -8 -13  77 E2        30.42R
PICKLE LAKE    NOT AVBL
DRYDEN         PTCLDY    27  21  80 NE2       30.27R
KENORA         MOCLDY    28  23  80 NE6       30.25F WCI  22
$$
                *** MANITOBA***

CITY           SKY/WX    TMP DP  RH WIND       PRES   REMARKS
BRANDON        CLOUDY    28  25  86 SE12      30.17F WCI  18
DAUPHIN        CLEAR     27  23  86 SE7       30.16F WCI  19
ISLAND LAKE    CLEAR     12  -4  48 SE8       30.32F WCI   1
PILOT MOUND      N/A     28  25  86 S12         N/A  WCI  18
THE PAS        CLOUDY    21   9  58 SE9       30.16F WCI  11
THOMPSON       CLOUDY    14  -4  44 E3        30.27F
WINNIPEG       CLOUDY    32  25  74 SE3       30.25F
LYNN LAKE      CLOUDY    14   5  67 SE6       30.15F WCI   5
CHURCHILL      CLEAR     -9 -17  70 S9        30.38F WCI -27
GILLAM         CLEAR     -2 -13  60 SE5       30.37S WCI -12
$$
                ***SASKATCHEWAN***

CITY           SKY/WX    TMP DP  RH WIND       PRES   REMARKS
ESTEVAN        MOCLDY    32  30  93 SE17      30.00S WCI  21
KINDERSLEY     CLOUDY    39  36  87 NE12      29.65F
LLOYDMINSTER   CLOUDY    34  30  86 E15G24    29.70F WCI  24
PRINCE ALBERT  CLOUDY    30  25  80 E18G25    29.92F WCI  18
REGINA         CLOUDY    34  30  86 SE22G32   29.89F WCI  22
YORKTON        MOCLDY    28  25  86 SE17G24   30.04F W



USA.gov is the U.S. government's official web portal to all federal, state and local government web resources and services.